This is the latest recevied weather packets stored in our database for station/object MM1PTT-13. If no packets are shown the sender has not sent any weather packets the latest 10 day(s).
| Time | Temp. | Humidity | Pressure | Rain* | Wind** | Luminosity | Snow |
|---|---|---|---|---|---|---|---|
| 1777726243 | 15.56° C | 71% | 984.8 hPa | 0 mm | - | 462 W/m² | - |
| 1777725942 | 16.11° C | 71% | 984.8 hPa | 0 mm | - | 368 W/m² | - |
| 1777725642 | 16.11° C | 71% | 984.8 hPa | 0 mm | - | 416 W/m² | - |
| 1777725343 | 15.56° C | 73% | 985.1 hPa | 0 mm | - | 479 W/m² | - |
| 1777725042 | 15.56° C | 74% | 984.8 hPa | 0 mm | - | 420 W/m² | - |
| 1777724742 | 15° C | 75% | 984.8 hPa | 0 mm | - | 470 W/m² | - |
| 1777724442 | 15° C | 75% | 984.8 hPa | 0 mm | - | 478 W/m² | - |
| 1777724145 | 15° C | 75% | 984.8 hPa | 0 mm | - | 517 W/m² | - |
| 1777723843 | 14.44° C | 76% | 984.8 hPa | 0 mm | - | 676 W/m² | - |
| 1777723542 | 14.44° C | 77% | 985.1 hPa | 0 mm | - | 332 W/m² | - |
| 1777723242 | 14.44° C | 76% | 985.1 hPa | 0 mm | - | 213 W/m² | - |
| 1777722943 | 14.44° C | 76% | 985.1 hPa | 0 mm | - | 305 W/m² | - |
| 1777722642 | 14.44° C | 76% | 984.8 hPa | 0 mm | - | 308 W/m² | - |
| 1777722343 | 14.44° C | 75% | 985.4 hPa | 0 mm | - | 296 W/m² | - |
| 1777722042 | 14.44° C | 75% | 985.1 hPa | 0 mm | - | 356 W/m² | - |
| 1777721742 | 15° C | 76% | 985.1 hPa | 0 mm | - | 399 W/m² | - |
| 1777721443 | 14.44° C | 75% | 985.1 hPa | 0 mm | - | 459 W/m² | - |
| 1777721142 | 14.44° C | 76% | 985.1 hPa | 0 mm | - | 370 W/m² | - |
| 1777720843 | 13.89° C | 77% | 985.1 hPa | 0 mm | - | 346 W/m² | - |
| 1777720542 | 14.44° C | 77% | 985.4 hPa | 0 mm | - | 346 W/m² | - |
| 1777720243 | 13.89° C | 79% | 985.4 hPa | 0 mm | - | 353 W/m² | - |
| 1777719942 | 13.89° C | 79% | 985.1 hPa | 0 mm | - | 243 W/m² | - |
| 1777719646 | 13.89° C | 79% | 985.1 hPa | 0 mm | - | 236 W/m² | - |
| 1777719344 | 13.89° C | 78% | 985.4 hPa | 0 mm | - | 215 W/m² | - |
| 1777719043 | 13.89° C | 79% | 985.4 hPa | 0 mm | - | 188 W/m² | - |
* Rain latest hour (hover to see other rain measurements)
** Current wind speed in m/s (hover to see current wind gust speed)